KUIPER-00294

导读

KUIPER-00294(NORAD编号68594)是亚马逊柯伊伯(Project Kuiper)星座计划的运营卫星之一,该计划旨在构建全球卫星宽带互联网网络,计划总共部署3236颗卫星,向全球提供互联网接入服务,直接对标SpaceX Starlink。 作为亚马逊首批部署的27颗运营卫星之一,该卫星于2025年4月由联合发射联盟Atlas V火箭从佛罗里达州卡纳维拉尔角发射,进入近地轨道。卫星通过红外激光链路实现互连,单链路可支持100Gbps高速传输,配合地面终端可为用户提供最高400Mbps的宽带服务。

Basic Information
目录编号:
68594
目录名称:
KUIPER-00294
国际标识:
2026-072X
轨道中心:
EARTH
卫星名称:
KUIPER-00294
卫星全名:
KUIPER-00294
卫星状态:
在轨 (已飞行70 天)
发射日期:
2026-04-04 UTC
国别 :
美国 (US)
星等 :
--
Orbit Information
数据来源 国际轨道数据
星历时间: 2026-06-13T04:00:02+0800
5小时前
查看轨道信息
半长轴: 6865.409km
偏心率: 0.0012002
轨道倾角: 51.872°
近地点辐角 8.973°
升交点赤经 198.720°
平近点角 230.313°
近地点: 479.032km
远地点: 495.512km
周期: 94.354分钟
每日圈数: 15.261709
Detailed Information
使用方式:
暂无
2D Orbit Map
3D Orbit Map
Orbit Altitude Analysis Chart
Orbit Inclination Analysis Chart
Orbit Comprehensive Analysis Chart
View Comprehensive Chart